This is the latest recevied weather packets stored in our database for station/object KY4OP-13. If no packets are shown the sender has not sent any weather packets the latest 10 day(s).
| Time | Temp. | Humidity | Pressure | Rain* | Wind** | Luminosity | Snow |
|---|---|---|---|---|---|---|---|
| 1777616664 | 5° C | 89% | 1016.6 hPa | 0 mm | - | - | - |
| 1777616359 | 5° C | 90% | 1016.8 hPa | 0 mm | - | - | - |
| 1777616056 | 5° C | 90% | 1016.8 hPa | 0 mm | - | - | - |
| 1777615753 | 5° C | 89% | 1016.9 hPa | 0 mm | - | - | - |
| 1777615450 | 5° C | 89% | 1016.8 hPa | 0 mm | - | - | - |
| 1777615149 | 5° C | 89% | 1016.8 hPa | 0 mm | - | - | - |
| 1777614845 | 5° C | 88% | 1016.6 hPa | 0 mm | - | - | - |
| 1777614542 | 5° C | 88% | 1016.8 hPa | 0 mm | - | - | - |
| 1777614237 | 5° C | 88% | 1016.8 hPa | 0 mm | - | - | - |
| 1777613932 | 5° C | 88% | 1016.9 hPa | 0 mm | - | - | - |
| 1777613629 | 5.56° C | 87% | 1016.7 hPa | 0 mm | - | - | - |
| 1777613326 | 5° C | 87% | 1016.8 hPa | 0 mm | - | - | - |
| 1777613023 | 5.56° C | 87% | 1016.8 hPa | 0 mm | - | - | - |
| 1777612718 | 5.56° C | 86% | 1016.8 hPa | 0 mm | - | - | - |
| 1777612415 | 5.56° C | 85% | 1016.8 hPa | 0 mm | - | - | - |
| 1777612110 | 5.56° C | 83% | 1016.9 hPa | 0 mm | - | - | - |
| 1777611806 | 6.11° C | 82% | 1016.6 hPa | 0 mm | - | - | - |
| 1777611502 | 6.67° C | 81% | 1016.9 hPa | 0 mm | - | - | - |
| 1777611199 | 7.22° C | 80% | 1016.6 hPa | 0 mm | - | - | - |
| 1777610896 | 7.22° C | 80% | 1016.7 hPa | 0 mm | - | - | - |
| 1777610591 | 7.22° C | 79% | 1016.5 hPa | 0 mm | - | - | - |
| 1777610289 | 7.22° C | 77% | 1016.4 hPa | 0 mm | - | - | - |
| 1777609987 | 7.78° C | 74% | 1016.6 hPa | 0 mm | - | - | - |
| 1777609683 | 8.33° C | 74% | 1016.5 hPa | 0 mm | - | - | - |
| 1777609380 | 8.33° C | 73% | 1016.4 hPa | 0 mm | - | - | - |
* Rain latest hour (hover to see other rain measurements)
** Current wind speed in m/s (hover to see current wind gust speed)